Showing default

IRIDIUM 102, 41920

Orbit data source: Space-Track

IRIDIUM 102, 41920 is a payload satellite owned by Iridium (US) in LEO that was launched on Sat, 14 Jan 2017 UTC via an FALCON 9 launch vehicle from the Air Force Western Test Range (AFWTR). Payload-class satellites include a variety of spacecraft equipped with specific instruments for various scientific and technological missions. These include communications satellites like Starlink; space stations such as the ISS; scientific satellites like the Hubble; Earth observation satellites from companies like Planet Labs, Umbra, and HawkEye 360; GPS; miniature CubeSats for education and research; and military/defense satellites.

Loading next visibility...
Identifier
41920, 2017-003D
Orbit
LEO
Country
Flag of USUS
Related business
Manufacturer
OATK SSG Gilbert
Mission
Operational Commercial Communications
Bus & Motor
ELITEBUS, Unknown motor
Mass
860 kg wet, 700 kg dry
Launch date (UTC)
2017-01-14 (9 years ago)
Launch vehicle
FALCON 9
Launch site
Air Force Western Test Range (AFWTR)
Object type
Payload
Rocket body
Debris
Shape & HBR
Trap Box + 2 Pan, 4.8 m
Radar Cross Section
10.154 m², Large (>1 m²)

Expand to show TLE details & history
Last TLE update: 10 hours ago

TLE from 10 hours ago
0 IRIDIUM 102
1 41920U 17003D   25353.47326561  .00000005  00000-0 -53741-5 0  9990
2 41920  86.3994 163.5270 0001894  88.8561 271.2852 14.34217082467522
Epoch: 2025-12-19T11:21Z
TLE epoch observation values (Epoch: 2025-12-19T11:21:30.148Z)
Latitude
-0.00002°
Longitude
-95.16253°
Altitude
780.69 km
Speed
7.464 km/s
True Right ascension
10h 54m 06s
True Declination
0° 00' 00"
Sunlit
Object was in daylight at epoch
Visualization orbit readout
Latitude
Unknown
Longitude
Unknown
Altitude
Unknown
Speed
Unknown
Apparent Right ascension
Unknown
Apparent Declination
Unknown
Sunlit
N/A
Visualization observer readout
Local Sidereal Time
20:09:06
Azimuth
Unknown
Elevation
Unknown
Doppler factor
Unknown
Orbital elements
Apogee altitude
775.989 km
Perigee altitude
773.279 km
Semi-major axis
7,152.771 km
Eccentricity
0.00019
Inclination
86.3994°
RAAN
163.527°
Arg. of periapsis
88.8561°
True anomaly
271.2635°
Mean anomaly
271.2852°
Eccentric anomaly
271.27435°
Mean motion
3.58783 °/min
Orbital period
100.34 mins
BSTAR
-0.0000053741
Loading maneuver chart data...
Computing Atmospheric mass density...
Loading historical data...
Loading historical data...
Loading historical data...
Loading historical data...
Loading historical data...
Loading historical data...
Loading historical data...

Documentation

Showing up to 5 results
|